Regional Weather Roundup
Issued by NWS Cleveland, OH

Home | Current Version | Previous Version | Graphics & Text | Print | Product List | Glossary On
Versions: 1 2 3 4 5 6 7 8 9 10 11 12 13 14 15 16 17 18 19 20 21 22 23 24 25 26 27 28 29 30 31 32 33 34 35 36 37 38 39 40 41 42 43 44 45 46 47 48 49 50
000
ASUS41 KCLE 310400
RWRCLE
OHIO REGIONAL WEATHER ROUNDUP
NATIONAL WEATHER SERVICE WILMINGTON, OH
1200 AM EDT FRI JUL 31 2015

NOTE: "FAIR" INDICATES FEW OR NO CLOUDS BELOW 12,000 FEET WITH NO
SIGNIFICANT WEATHER AND/OR OBSTRUCTIONS TO VISIBILITY.

OHZ001>008-015>018-024>027-034-035-043-044-310500-
   NORTHWEST OHIO

CITY           SKY/WX    TMP DP  RH WIND       PRES   REMARKS
DEFIANCE       CLEAR     69  58  67 SW5       30.01S
FINDLAY        CLEAR     65  59  81 SW6       30.01S
TOLEDO EXPRESS CLEAR     70  57  63 SW6       29.99S
TOLEDO EXEC    CLEAR     71  58  63 SW5       30.00S
LIMA           CLEAR     63  58  83 CALM      30.04S
$$

OHZ009>014-019>023-028>033-038-089-310500-
   NORTHEAST OHIO

CITY           SKY/WX    TMP DP  RH WIND       PRES   REMARKS
CLE-HOPKINS    CLEAR     69  58  67 SW7       30.00S
CLE-LAKEFRONT  CLEAR     78  65  63 W17       29.96R
CUY CO. ARPT   NOT AVBL
LORAIN-ELYRIA  CLEAR     67  58  72 W7        30.00R
ASHTABULA      MOCLDY    69  59  70 W3        29.97R
AKRON-CANTON   CLEAR     70  57  63 W7        30.01R
WOOSTER        NOT AVBL
MANSFIELD      CLEAR     69  56  62 W7        30.03S
YOUNGSTOWN     CLEAR     67  58  72 SW6       29.99R
$$

OHZ042-051>053-060>062-070>072-077>081-310500-
  SOUTHWEST OHIO

CITY           SKY/WX    TMP DP  RH WIND       PRES   REMARKS
CINC-COVINGTON CLEAR     72  62  68 S3        30.07S
CINC-LUNKEN    CLEAR     66  63  90 CALM      30.07R
HAMILTON       CLEAR     65  62  90 CALM      30.07R
DAYTON         NOT AVBL
WRIGHT-PAT AFB CLEAR     65  62  88 SW2       30.05S
DAYTON GENERAL CLEAR     70  59  68 CALM      30.06S
WILMINGTON     CLEAR     65  60  84 SW3       30.06S
$$

OHZ036-037-039>041-045>050-054>059-063>069-073>076-082>088-310500-
  CENTRAL AND SOUTHEAST OHIO

CITY           SKY/WX    TMP DP  RH WIND       PRES   REMARKS
COLUMBUS       CLEAR     71  58  63 W6        30.03R
OSU AIRPORT    CLEAR     67  59  75 W8        30.04R
BOLTON FIELD   NOT AVBL
RICKENBACK AFB NOT AVBL
NEWARK         CLEAR     66  60  81 W3        30.03R
MARION         CLEAR     70  56  61 W6        30.03S
LANCASTER      CLEAR     62  59  90 CALM      30.04S
ZANESVILLE     CLEAR     65  59  81 SW5       30.03R
NEW PHILLY     CLEAR     63  60  90 CALM      30.02R
$$



USA.gov is the U.S. government's official web portal to all federal, state and local government web resources and services.